Startseite
Über Mich
AHP4
Galerie
Sehschlangen
Tourenbuch
Bookmarks
Elektronik
Bewertung
Geschichten
[Tagesmessung] [Jahreswerte] [Information]

Messwerte vom 07.03.2022

Die letzten Messwerte von 23:58:47 Uhr:
KategorieMesswert
Temperatur [°C]-3
Luftdruck [mBar]1011
Sonneneinstrahlung0
Wind [km/h]0 aus Südost
Niederschlag [l/m²]0
rel.Luftfeucht.85.1%
CO2 [ppm]671

Diagramme
Messwerte vom 07.03.2022
Tagesaggregation
KategorieMinimumMaximumSchnittSumme
Temperatur [°C]-4121.7396
Luftdruck [mBar]100910121010.3208
Sonneneinstrahlung24697.7438
Wind [km/h]0
rF [%]41.991.772.22
Niederschlag [l/m²]0
CO2 [ppm]404761651.9
Einordnung alsFrosttag
Vegetationstag

Messungen an benachbarten Tagen: Zur Jahresaggregation 2022
Tabelle aller Messwerte
UhrzeitTemperatur [°C]Luftdruck [mBar]SonneWind [km/h]RichtungRegen [l/m²]rF [%]CO2 [ppm]
00:01:47 -1 1010 0 0 S 0 80 712
00:04:47 -1 1010 0 0 S 0 80.2 715
00:07:47 0 1010 0 0 W 0 80.1 709
00:10:46 0 1011 0 0 W 0 79.9 711
00:13:47 0 1010 0 0 W 0 79.9 712
00:16:48 0 1010 0 0 W 0 79.8 708
00:19:48 0 1010 0 0 W 0 79.8 709
00:22:48 0 1010 0 0 SO 0 79.7 713
00:25:48 0 1010 0 0 SO 0 79.7 721
00:28:47 0 1010 0 0 SO 0 79.9 715
00:31:46 0 1010 0 0 SO 0 80.1 712
00:34:47 0 1010 0 0 SO 0 80.1 707
00:37:48 0 1010 0 0 SO 0 80.2 704
00:40:50 0 1010 0 0 SO 0 80.1 698
00:43:47 0 1010 0 0 SO 0 80.1 695
00:46:47 0 1010 0 0 SW 0 80.2 697
00:49:47 0 1010 0 0 SW 0 80.6 698
00:52:46 0 1010 0 0 SW 0 80.7 705
00:55:50 0 1010 0 0 SO 0 80.9 704
00:58:45 0 1010 0 0 O 0 81.3 709
01:01:47 0 1011 0 0 NW 0 81.9 709
01:04:46 0 1010 0 0 W 0 81.5 717
01:07:45 0 1010 0 0 SO 0 81.4 710
01:10:49 0 1010 0 0 SO 0 81.3 708
01:13:47 0 1010 0 0 NW 0 81.3 705
01:16:44 0 1010 0 0 W 0 81.4 696
01:19:46 0 1010 0 0 O 0 81.6 700
01:22:46 0 1010 0 0 W 0 81.6 708
01:25:46 0 1011 0 0 S 0 81.7 711
01:28:46 0 1010 0 0 S 0 81.6 714
01:31:48 0 1010 0 0 S 0 81.8 721
01:34:47 0 1011 0 0 SW 0 81.8 715
01:37:46 0 1011 0 0 W 0 81.6 702
01:40:46 0 1010 0 0 W 0 81.6 697
01:43:45 0 1010 0 0 W 0 81.5 697
01:46:45 0 1011 0 0 SW 0 81.4 702
01:49:47 0 1010 0 0 W 0 81.4 705
01:52:45 0 1010 0 0 W 0 81.3 702
01:55:47 0 1010 0 0 W 0 81 697
01:58:48 0 1010 0 0 NW 0 80.8 697
02:01:47 0 1010 0 0 W 0 80.7 693
02:04:47 0 1010 0 0 SW 0 80.7 699
02:07:47 0 1011 0 0 NW 0 80.9 693
02:10:45 0 1010 0 0 W 0 81.3 696
02:13:47 0 1010 0 0 SO 0 81.6 697
02:16:48 0 1010 0 0 SW 0 81.8 700
02:19:48 0 1010 0 0 W 0 82.1 694
02:22:47 0 1010 0 0 O 0 82.2 699
02:25:49 0 1010 0 0 W 0 82.2 696
02:28:46 0 1010 0 0 W 0 82.3 694
02:31:47 0 1010 0 0 SO 0 82.4 685
02:34:48 0 1010 0 0 SO 0 82.7 684
02:37:47 0 1010 0 0 SO 0 82.7 683
02:40:45 0 1010 0 0 S 0 82.7 697
02:43:48 0 1010 0 0 S 0 82.6 697
02:46:48 0 1010 0 0 S 0 82.6 697
02:49:49 0 1010 0 0 W 0 82.6 693
02:52:48 0 1010 0 0 W 0 82.6 689
02:55:47 0 1010 0 0 S 0 82.6 694
02:58:46 0 1010 0 0 W 0 82.6 697
03:01:46 0 1010 0 0 W 0 82.7 699
03:04:45 0 1010 0 0 W 0 82.7 695
03:07:48 0 1010 0 0 SO 0 82.7 693
03:10:48 0 1010 0 0 S 0 82.8 690
03:13:46 0 1010 0 0 S 0 82.8 688
03:16:49 0 1010 0 0 NW 0 82.9 693
03:19:46 0 1010 0 0 W 0 82.9 686
03:22:48 0 1010 0 0 SW 0 82.9 689
03:25:47 0 1010 0 0 O 0 83.2 691
03:28:46 0 1010 0 0 SW 0 83.4 700
03:31:48 0 1010 0 0 NW 0 83.4 703
03:34:45 -1 1010 0 0 W 0 83.3 700
03:37:50 -1 1010 0 0 NW 0 83.2 699
03:40:47 -1 1010 0 0 NW 0 83.3 691
03:43:48 -1 1010 0 0 NW 0 83.4 691
03:46:47 -1 1010 0 0 NW 0 83.3 688
03:49:48 -1 1010 0 0 NW 0 83.2 693
03:52:45 -1 1010 0 0 W 0 83.2 694
03:55:47 -1 1010 0 0 W 0 83.4 690
03:58:47 -1 1010 0 0 W 0 83.4 688
04:01:49 -1 1010 0 0 W 0 83.6 689
04:04:50 -1 1010 0 0 W 0 83.7 686
04:07:46 -1 1010 0 0 W 0 83.8 692
04:10:46 -1 1010 0 0 W 0 83.7 700
04:13:46 -1 1010 0 0 W 0 83.7 695
04:16:47 -1 1010 0 0 W 0 83.7 685
04:19:46 -1 1010 0 0 W 0 84 682
04:22:48 -1 1010 0 0 W 0 83.8 688
04:25:49 -1 1010 0 0 SO 0 84.1 691
04:28:49 -1 1010 0 0 SO 0 84.2 695
04:31:48 -1 1010 0 0 NW 0 84.2 703
04:34:47 -1 1010 0 0 S 0 84.3 696
04:37:47 -1 1010 0 0 SO 0 84.5 684
04:40:47 -1 1010 0 0 SO 0 84.6 677
04:43:46 -2 1010 0 0 SO 0 84.4 680
04:46:47 -2 1010 0 0 SO 0 84.5 682
04:49:48 -2 1010 0 0 SO 0 84.6 688
04:52:47 -2 1010 0 0 SO 0 85 682
04:55:47 -2 1010 0 0 SO 0 85.1 688
04:58:48 -2 1010 0 0 SO 0 85.1 700
05:01:49 -2 1010 0 0 SO 0 85.1 694
05:04:50 -3 1010 0 0 SO 0 85.5 695
05:07:48 -3 1010 0 0 SO 0 85.6 691
05:10:46 -3 1010 0 0 SO 0 85.7 688
05:13:48 -2 1010 0 0 SO 0 86.2 689
05:16:47 -3 1010 0 0 SO 0 86.5 694
05:19:49 -3 1010 0 0 NW 0 86.6 698
05:22:48 -3 1010 0 0 NW 0 86.9 700
05:25:47 -3 1010 0 0 NW 0 87 691
05:28:49 -3 1010 0 0 NW 0 87.1 692
05:31:49 -3 1010 0 0 NW 0 87.1 686
05:34:48 -3 1011 0 0 NW 0 87.1 689
05:37:50 -3 1010 0 0 NW 0 87.2 688
05:40:50 -3 1010 0 0 NW 0 87.2 688
05:43:48 -3 1010 0 0 NW 0 87.3 694
05:46:49 -3 1010 0 0 NW 0 87.4 697
05:49:51 -3 1010 0 0 NW 0 87.5 692
05:52:47 -4 1011 0 0 NW 0 87.6 697
05:55:47 -4 1010 0 0 NW 0 87.6 700
05:58:46 -4 1010 0 0 NW 0 87.6 702
06:01:49 -4 1011 0 0 NW 0 87.8 697
06:04:50 -4 1010 0 0 NW 0 87.8 697
06:07:48 -4 1010 0 0 NW 0 87.8 697
06:10:49 -4 1010 0 0 NW 0 88 697
06:13:48 -4 1010 0 0 NW 0 88.2 697
06:16:50 -4 1010 0 0 NW 0 88.5 689
06:19:47 -4 1010 0 0 NW 0 88.5 697
06:22:49 -4 1010 0 0 NW 0 88.4 692
06:25:47 -4 1010 3 0 NW 0 88.4 703
06:28:48 -4 1011 6 0 NW 0 88.7 694
06:31:48 -4 1010 10 0 NW 0 88.8 697
06:34:48 -4 1010 16 0 NW 0 88.9 695
06:37:49 -4 1010 25 0 NW 0 89.1 693
06:40:47 -4 1010 36 0 NW 0 89.3 691
06:43:48 -4 1010 48 0 NW 0 89.1 695
06:46:49 -4 1011 62 0 NW 0 89 700
06:49:50 -4 1010 75 0 NW 0 89 705
06:52:50 -4 1010 88 0 NW 0 89.2 704
06:55:48 -4 1010 99 0 NW 0 89.4 711
06:58:47 -4 1010 110 0 NW 0 89.6 708
07:01:52 -4 1010 119 0 NW 0 89.9 710
07:04:47 -4 1010 128 0 NW 0 90.1 708
07:07:48 -4 1011 135 0 NW 0 90.2 705
07:10:50 -4 1010 142 0 NW 0 90.4 702
07:13:48 -4 1010 147 0 SO 0 90.8 694
07:16:47 -4 1011 152 0 SO 0 91.4 687
07:19:48 -4 1010 156 0 SO 0 91.4 685
07:22:49 -4 1011 160 0 SO 0 91.4 682
07:25:50 -4 1011 163 0 SO 0 91.3 689
07:28:47 -4 1010 166 0 SO 0 91.1 703
07:31:49 -4 1010 168 0 SO 0 91.2 709
07:34:49 -3 1011 170 0 SO 0 91.2 714
07:37:47 -3 1011 172 0 SO 0 91.3 715
07:40:49 -3 1010 174 0 SO 0 91.4 720
07:43:49 -3 1010 175 0 SO 0 91.5 726
07:46:48 -3 1010 176 0 SO 0 91.3 726
07:49:48 -3 1010 178 0 SO 0 91.2 721
07:52:47 -3 1011 179 0 SO 0 91.1 715
07:55:47 -3 1010 180 0 SO 0 91.1 711
07:58:47 -3 1011 181 0 SO 0 91.1 719
08:01:48 -3 1012 181 0 SO 0 91.2 720
08:04:49 -3 1011 182 0 NO 0 91.2 732
08:07:48 -3 1011 183 0 NO 0 91.2 734
08:10:49 -3 1011 183 0 NO 0 91.2 741
08:13:47 -3 1011 184 0 NO 0 91.2 744
08:16:45 -3 1011 185 0 NO 0 91.1 743
08:19:48 -3 1010 185 0 NO 0 91.1 746
08:22:48 -3 1012 185 0 SW 0 91 746
08:25:48 -2 1011 186 0 S 0 91.5 741
08:28:48 -2 1012 186 0 SW 0 91.6 749
08:31:51 -2 1012 187 0 S 0 91.6 750
08:34:47 -2 1011 187 0 SW 0 91.4 750
08:37:49 -2 1011 187 0 SW 0 91.7 741
08:40:48 -2 1012 188 0 O 0 91.6 740
08:43:49 -2 1011 188 0 SW 0 91.5 739
08:46:48 -2 1012 188 0 S 0 91.1 737
08:49:49 -1 1012 188 0 S 0 90.6 738
08:52:48 -1 1011 189 0 SW 0 90.3 746
08:55:49 -1 1011 189 0 SW 0 90 746
08:58:51 -1 1011 189 0 SW 0 89.8 746
09:01:48 -1 1011 190 0 S 0 89.7 752
09:04:47 -1 1011 190 0 S 0 89.6 761
09:07:49 -1 1011 190 0 SW 0 89.1 756
09:10:48 -1 1012 191 0 W 0 89 505
09:13:49 0 1012 191 0 SO 0 88.9 489
09:16:49 0 1012 191 0 S 0 88 642
09:19:52 0 1012 191 0 W 0 87.6 708
09:22:47 0 1011 191 0 O 0 87.5 688
09:25:47 0 1012 191 0 S 0 87.1 671
09:28:46 0 1012 192 0 S 0 87.1 667
09:31:48 0 1011 192 0 S 0 86.9 682
09:34:48 0 1011 192 0 SW 0 86.6 688
09:37:51 0 1012 192 0 SW 0 86.5 692
09:40:49 1 1011 193 0 SW 0 86.1 688
09:43:50 1 1012 193 0 SO 0 85.8 682
09:46:50 1 1012 193 0 NW 0 85.5 689
09:49:49 1 1012 193 0 W 0 85.6 689
09:52:48 1 1012 194 0 SW 0 85.1 692
09:55:49 1 1011 194 0 NW 0 84.7 691
09:58:47 1 1012 195 0 S 0 84.5 694
10:01:46 1 1012 196 0 W 0 84.4 698
10:04:49 2 1012 197 0 NW 0 84.3 694
10:07:50 2 1012 198 0 SW 0 83.6 686
10:10:49 2 1012 199 0 S 0 83 679
10:13:48 2 1011 200 0 S 0 82.6 670
10:16:46 2 1011 201 0 O 0 82.4 679
10:19:47 2 1012 202 0 W 0 82 683
10:22:47 2 1012 202 0 N 0 81.8 689
10:25:47 2 1011 202 0 W 0 81.9 690
10:28:47 3 1011 202 0 S 0 81.7 700
10:31:49 3 1011 203 0 NW 0 80.6 697
10:34:47 3 1011 203 0 S 0 80.3 691
10:37:49 3 1011 203 0 S 0 80.4 699
10:40:47 3 1011 203 0 S 0 79.6 700
10:43:49 3 1011 203 0 SW 0 78.6 694
10:46:46 4 1012 203 0 S 0 77.3 697
10:49:47 4 1011 203 0 W 0 76.8 697
10:52:49 4 1011 203 0 SW 0 76 703
10:55:46 4 1011 204 0 SO 0 76 710
10:58:46 4 1011 204 0 SO 0 76.5 700
11:01:48 4 1011 204 0 W 0 75.8 700
11:04:46 4 1011 204 0 S 0 73.7 696
11:07:48 4 1011 204 0 NW 0 73.5 694
11:10:47 5 1012 205 0 SO 0 73 682
11:13:50 5 1011 205 0 SO 0 71.5 689
11:16:46 5 1012 205 0 O 0 71 678
11:19:47 5 1011 205 0 SO 0 70.2 682
11:22:47 5 1011 205 0 S 0 70 689
11:25:49 5 1012 205 0 W 0 69.3 694
11:28:47 5 1011 206 0 S 0 68.3 702
11:31:48 6 1012 206 0 NW 0 66.7 694
11:34:53 6 1012 206 0 NW 0 65.8 702
11:37:47 6 1011 207 0 SO 0 65.5 696
11:40:47 5 1011 207 0 NW 0 64.1 689
11:43:46 6 1011 208 0 W 0 64.7 700
11:46:49 7 1011 207 0 NW 0 61.3 694
11:49:50 7 1011 208 0 NW 0 59.3 691
11:52:49 7 1012 208 0 NW 0 57.7 687
11:55:47 7 1012 209 0 W 0 56.7 690
11:58:48 8 1012 210 0 S 0 60.6 691
12:01:48 9 1011 211 0 W 0 60.8 687
12:04:47 9 1012 214 0 N 0 52.8 692
12:07:47 9 1011 215 0 W 0 52.6 697
12:10:49 9 1011 213 0 SO 0 53.7 692
12:13:48 9 1011 209 0 NO 0 53.4 699
12:16:46 9 1011 212 0 N 0 51.8 700
12:19:50 8 1011 210 0 NW 0 53.5 700
12:22:47 8 1011 210 0 W 0 55.6 703
12:25:46 8 1011 211 0 NO 0 55.8 712
12:28:49 8 1010 218 0 W 0 54.8 708
12:31:50 8 1010 221 0 NO 0 54.4 705
12:34:51 9 1011 220 0 SW 0 54.5 707
12:37:46 9 1011 222 0 N 0 54.9 705
12:40:49 11 1011 225 0 W 0 52.1 700
12:43:48 12 1011 224 0 S 0 49.8 677
12:46:50 12 1010 227 0 SO 0 48.8 660
12:49:47 12 1011 228 0 N 0 42 665
12:52:49 11 1010 230 0 NW 0 45.5 682
12:55:48 11 1011 216 0 NW 0 46.9 667
12:58:49 11 1010 214 0 SO 0 48.3 408
13:01:51 12 1010 206 0 W 0 46.5 407
13:04:47 11 1011 229 0 0 43.8 410
13:07:49 10 1010 228 0 NW 0 43.6 472
13:10:48 9 1010 229 0 N 0 46 484
13:13:47 9 1010 215 0 NW 0 48.1 479
13:16:45 8 1011 214 0 O 0 49.7 473
13:19:46 7 1011 217 0 W 0 51.2 509
13:22:48 8 1010 230 0 W 0 53.2 515
13:25:51 9 1010 230 0 NW 0 52.5 506
13:28:46 9 1010 232 0 O 0 49.7 501
13:31:45 9 1010 234 0 S 0 49.3 503
13:34:46 10 1010 235 0 N 0 49.1 512
13:37:46 10 1010 235 0 N 0 47.6 518
13:40:49 10 1010 234 0 NW 0 46 514
13:43:48 10 1010 227 0 NO 0 47.3 524
13:46:49 9 1010 220 0 NW 0 48.2 533
13:49:47 8 1010 224 0 NW 0 47.9 535
13:52:47 8 1011 218 0 NW 0 49.2 544
13:55:50 7 1010 218 0 NW 0 50.3 541
13:58:46 7 1010 224 0 N 0 51.2 560
14:01:45 7 1010 243 0 O 0 52.1 551
14:04:49 8 1010 243 0 NW 0 51.9 554
14:07:51 8 1011 243 0 NO 0 50.2 565
14:10:47 8 1010 243 0 W 0 49.7 574
14:13:47 9 1010 244 0 O 0 49.6 579
14:16:47 10 1010 244 0 S 0 50.8 586
14:19:48 10 1010 245 0 N 0 44.5 582
14:22:48 10 1010 245 0 NO 0 46.5 585
14:25:50 10 1010 245 0 NW 0 46.4 586
14:28:45 10 1010 245 0 N 0 46.1 592
14:31:47 10 1010 245 0 N 0 45.7 592
14:34:48 10 1010 245 0 SO 0 47.2 597
14:37:46 10 1010 245 0 S 0 46 600
14:40:49 10 1010 245 0 NW 0 45.3 612
14:43:48 9 1010 245 0 NO 0 45.2 621
14:46:48 9 1010 246 0 NW 0 46 624
14:49:48 9 1010 246 0 NW 0 45.3 633
14:52:46 9 1010 246 0 N 0 45.5 636
14:55:47 9 1010 246 0 S 0 45.9 635
14:58:48 9 1010 246 0 SO 0 46 644
15:01:49 9 1010 246 0 NO 0 45.6 646
15:04:50 9 1010 246 0 NW 0 44.6 646
15:07:48 9 1010 246 0 O 0 46.1 659
15:10:47 9 1010 246 0 N 0 46 655
15:13:50 9 1009 246 0 NW 0 44.5 661
15:16:46 10 1010 246 0 S 0 45.3 656
15:19:47 11 1010 246 0 S 0 46.4 661
15:22:47 10 1010 246 0 O 0 42.2 662
15:25:48 10 1010 246 0 NW 0 42 664
15:28:46 9 1010 246 0 O 0 41.9 658
15:31:46 9 1010 244 0 N 0 42.1 659
15:34:49 9 1009 240 0 N 0 42.8 654
15:37:47 9 1009 238 0 N 0 43 671
15:40:47 9 1010 237 0 0 43.4 688
15:43:48 8 1010 229 0 N 0 44.4 695
15:46:49 8 1010 235 0 NW 0 45.1 692
15:49:48 8 1010 234 0 N 0 44.4 692
15:52:48 8 1010 231 0 NO 0 44.1 690
15:55:48 8 1009 226 0 NW 0 44.5 692
15:58:50 8 1010 223 0 NW 0 44.8 688
16:01:48 8 1010 228 0 O 0 45.3 689
16:04:48 8 1010 219 0 W 0 45.8 684
16:07:48 8 1010 218 0 W 0 45.7 684
16:10:52 8 1010 222 0 NW 0 46 686
16:13:50 8 1010 226 0 NO 0 46.7 678
16:16:47 8 1010 224 0 O 0 46.4 642
16:19:48 8 1010 219 0 NW 0 45.7 623
16:22:49 8 1010 217 0 NW 0 45.4 632
16:25:46 8 1010 218 0 NO 0 44.8 635
16:28:47 8 1010 215 0 NO 0 44.5 633
16:31:48 8 1010 215 0 NO 0 45.8 636
16:34:49 8 1010 220 0 NO 0 45.6 645
16:37:46 8 1009 232 0 N 0 44.5 656
16:40:49 8 1010 220 0 SO 0 43.4 662
16:43:46 8 1010 216 0 O 0 43.6 659
16:46:46 8 1010 214 0 N 0 44.5 670
16:49:47 7 1010 217 0 NW 0 44.5 667
16:52:48 7 1009 218 0 NO 0 44.9 676
16:55:49 7 1010 164 0 SO 0 44.6 650
16:58:46 7 1010 205 0 O 0 44.4 418
17:01:45 7 1010 216 0 N 0 45.1 404
17:04:46 7 1010 222 0 N 0 46 407
17:07:46 7 1010 204 0 O 0 46.5 404
17:10:46 7 1010 202 0 SW 0 46.6 407
17:13:45 7 1010 199 0 O 0 47.2 416
17:16:46 7 1010 198 0 NO 0 47.7 418
17:19:46 7 1010 196 0 O 0 48.3 431
17:22:47 6 1010 195 0 NW 0 49.1 442
17:25:46 6 1010 193 0 N 0 49.5 454
17:28:46 6 1010 191 0 NO 0 49.9 454
17:31:49 6 1009 188 0 N 0 50.6 457
17:34:48 6 1010 186 0 O 0 50.9 460
17:37:46 6 1010 183 0 N 0 51 462
17:40:46 6 1010 180 0 O 0 51.1 472
17:43:45 6 1010 176 0 N 0 51.2 474
17:46:45 6 1010 172 0 O 0 51.7 474
17:49:48 6 1010 168 0 NW 0 51.9 480
17:52:47 5 1010 163 0 O 0 52.5 485
17:55:44 5 1010 156 0 O 0 52.8 491
17:58:47 5 1010 147 0 SO 0 53.3 503
18:01:48 5 1010 137 0 SO 0 53.7 509
18:04:50 5 1009 125 0 O 0 54.2 515
18:07:46 5 1010 113 0 O 0 54.8 518
18:10:48 5 1010 100 0 O 0 55.2 530
18:13:47 5 1010 86 0 SW 0 55.4 539
18:16:47 5 1010 71 0 N 0 55.7 533
18:19:46 5 1010 56 0 O 0 55.8 539
18:22:48 4 1010 42 0 NO 0 56.2 548
18:25:48 4 1010 29 0 O 0 56.7 553
18:28:46 4 1009 19 0 O 0 56.8 556
18:31:46 4 1010 12 0 O 0 57.1 559
18:34:46 4 1010 7 0 O 0 57.4 562
18:37:44 3 1010 4 0 O 0 57.5 562
18:40:47 3 1010 0 0 O 0 58.3 568
18:43:47 3 1010 0 0 O 0 58.8 578
18:46:46 3 1010 0 0 O 0 59.8 586
18:49:45 2 1010 0 0 O 0 60.2 585
18:52:45 3 1010 0 0 O 0 60.4 586
18:55:49 2 1010 0 0 O 0 61 585
18:58:46 2 1010 0 0 O 0 61.4 589
19:01:47 2 1010 0 0 O 0 61.8 595
19:04:44 2 1010 0 0 O 0 62.1 600
19:07:45 2 1010 0 0 O 0 62.6 603
19:10:44 2 1010 0 0 O 0 63.1 594
19:13:45 1 1010 0 0 O 0 63.3 588
19:16:45 1 1010 0 0 O 0 63.8 582
19:19:45 1 1010 0 0 O 0 65.1 585
19:22:45 1 1010 0 0 O 0 65.1 586
19:25:46 1 1010 0 0 O 0 65.7 580
19:28:46 1 1010 0 0 O 0 66.2 577
19:31:45 1 1009 0 0 O 0 66.4 571
19:34:46 1 1010 0 0 O 0 67.4 564
19:37:50 1 1010 0 0 O 0 68.1 574
19:40:46 1 1010 0 0 O 0 68.1 577
19:43:45 1 1010 0 0 O 0 68.1 577
19:46:45 0 1010 0 0 O 0 68.4 559
19:49:46 0 1010 0 0 O 0 68.7 557
19:52:46 0 1010 0 0 O 0 69.3 556
19:55:46 0 1010 0 0 O 0 69.4 566
19:58:46 0 1010 0 0 O 0 69.8 562
20:01:46 0 1010 0 0 O 0 70.2 565
20:04:46 0 1010 0 0 O 0 70.2 559
20:07:45 0 1010 0 0 O 0 70.2 559
20:10:52 0 1010 0 0 O 0 71.1 568
20:13:46 0 1010 0 0 O 0 71.3 577
20:16:47 -1 1010 0 0 O 0 71.2 583
20:19:45 -1 1010 0 0 O 0 71.3 589
20:22:44 -1 1010 0 0 O 0 71.6 595
20:25:46 -1 1010 0 0 O 0 72.6 597
20:28:46 -1 1010 0 0 O 0 72.8 598
20:31:47 -1 1010 0 0 O 0 74.5 589
20:34:46 -1 1010 0 0 O 0 74.7 592
20:37:45 -1 1010 0 0 O 0 75 600
20:40:48 -1 1010 0 0 O 0 75.9 605
20:43:47 -1 1010 0 0 O 0 76 600
20:46:45 -1 1010 0 0 O 0 76 608
20:49:46 -1 1010 0 0 O 0 76.3 609
20:52:49 -1 1010 0 0 O 0 76.8 609
20:55:45 -1 1010 0 0 O 0 77 605
20:58:46 -1 1010 0 0 O 0 77.2 607
21:01:45 -1 1010 0 0 O 0 77.2 614
21:04:43 -1 1010 0 0 O 0 77.2 620
21:07:44 -1 1010 0 0 O 0 77.8 617
21:10:45 -2 1010 0 0 O 0 77.8 615
21:13:45 -2 1010 0 0 O 0 77.9 612
21:16:46 -2 1010 0 0 O 0 78.1 608
21:19:45 -2 1010 0 0 O 0 79.1 618
21:22:48 -2 1010 0 0 NO 0 81.1 626
21:25:46 -2 1010 0 0 NO 0 81 633
21:28:47 -2 1010 0 0 NO 0 80.1 636
21:31:47 -2 1010 0 0 NO 0 80 636
21:34:47 -2 1010 0 0 SO 0 80 635
21:37:48 -2 1010 0 0 SO 0 80 637
21:40:48 -2 1010 0 0 SO 0 80.1 638
21:43:49 -2 1011 0 0 SO 0 80.6 635
21:46:48 -2 1010 0 0 SO 0 80.7 635
21:49:46 -2 1010 0 0 SO 0 80.7 644
21:52:48 -2 1010 0 0 SO 0 81 645
21:55:49 -2 1010 0 0 SO 0 81.6 653
21:58:47 -2 1010 0 0 SO 0 81.9 656
22:01:48 -2 1010 0 0 SO 0 81.6 656
22:04:47 -2 1010 0 0 SO 0 81.7 651
22:07:49 -2 1010 0 0 SO 0 82 656
22:10:50 -2 1010 0 0 SO 0 82.3 664
22:13:48 -2 1010 0 0 SO 0 82.3 671
22:16:46 -2 1011 0 0 SO 0 82.1 673
22:19:47 -2 1010 0 0 SO 0 82.3 670
22:22:49 -2 1010 0 0 SO 0 82.6 674
22:25:50 -2 1010 0 0 SO 0 83.2 677
22:28:50 -2 1010 0 0 SO 0 83.2 680
22:31:48 -2 1010 0 0 SO 0 83.1 682
22:34:48 -2 1010 0 0 SO 0 83 673
22:37:48 -2 1010 0 0 SO 0 82.9 679
22:40:48 -2 1011 0 0 SO 0 82.6 674
22:43:47 -2 1010 0 0 SO 0 82.7 679
22:46:48 -2 1010 0 0 SO 0 82.9 685
22:49:49 -2 1010 0 0 SO 0 83 698
22:52:48 -2 1010 0 0 SO 0 83.2 695
22:55:46 -2 1010 0 0 SO 0 83.2 694
22:58:48 -3 1010 0 0 SO 0 83.3 697
23:01:47 -3 1010 0 0 SO 0 83.1 703
23:04:47 -3 1011 0 0 SO 0 83 705
23:07:47 -2 1011 0 0 SO 0 83.8 693
23:10:49 -3 1010 0 0 SO 0 83.9 686
23:13:48 -3 1010 0 0 SO 0 83.7 684
23:16:49 -3 1011 0 0 SO 0 83.7 683
23:19:49 -3 1010 0 0 SO 0 83.8 682
23:22:48 -3 1010 0 0 SO 0 83.8 679
23:25:48 -3 1010 0 0 SO 0 83.8 679
23:28:47 -3 1010 0 0 SO 0 83.9 677
23:31:47 -3 1011 0 0 SO 0 84 671
23:34:46 -3 1010 0 0 SO 0 84 671
23:37:50 -3 1010 0 0 SO 0 84 676
23:40:49 -3 1011 0 0 SO 0 84 676
23:43:47 -3 1010 0 0 SO 0 83.9 678
23:46:48 -3 1010 0 0 SO 0 84 677
23:49:48 -3 1010 0 0 SO 0 84.3 681
23:52:46 -3 1011 0 0 SO 0 84.8 679
23:55:47 -3 1010 0 0 SO 0 84.6 679
23:58:47 -3 1011 0 0 SO 0 85.1 671

Letzte Änderung : 04-Jan-2022
Copyright Jens Köhler, Wolfsburg, Obere Dorfstraße 10d